Regional Weather Roundup
Issued by NWS Upton, NY

Current Version | Previous Version | Text Only | Print | Product List | Glossary On
Versions: 1 2 3 4 5 6 7 8 9 10 11 12 13 14 15 16 17 18 19 20 21 22 23 24 25 26 27 28 29 30 31 32 33 34 35 36 37 38 39 40 41 42 43 44 45 46 47 48 49 50
405 ASUS41 KOKX 230708 RWROKX REGIONAL WEATHER ROUNDUP NATIONAL WEATHER SERVICE NEW YORK NY 200 AM EST THU FEB 23 2017 NOTE: "FAIR" INDICATES FEW OR NO CLOUDS BELOW 12,000 FEET WITH NO SIGNIFICANT WEATHER AND/OR OBSTRUCTIONS TO VISIBILITY. NYZ071-072-176-178-NJZ106-104-230800- NEW YORK CITY METRO AREA CITY SKY/WX TMP DP RH WIND PRES REMARKS Central Park CLEAR 50 42 74 CALM 29.91R Wall St Helipt NOT AVBL LaGuardia APRT MOCLDY 45 40 82 NE9 29.89R Kennedy INTL PTCLDY 40 40 100 CALM 29.90S Breezy Point N/A 43 N/A N/A MISG N/A Newark/Liberty PTCLDY 48 41 76 CALM 29.89R Teterboro NOT AVBL $$ NYZ177-179-078>081-230800- LONG ISLAND NEW YORK CITY SKY/WX TMP DP RH WIND PRES REMARKS Jones Beach N/A 41 N/A N/A CALM N/A Matinecock PT NOT AVBL Farmingdale FOG 39 37 92 E3 29.90R VSB 3/4 MacArthur/ISP NOT AVBL Shirley FOG 40 40 100 CALM 29.91 VSB 1/4 Westhampton FOG 40 40 100 CALM 29.92S VSB 1/4 Southampton NOT AVBL Bridgehampton NOT AVBL East Hampton FOG 41 40 98 CALM 29.90F VSB 1/4 Montauk N/A 43 42 97 VRB3 29.91S $$ NYZ052-065-067-230800- HUDSON VALLEY CITY SKY/WX TMP DP RH WIND PRES REMARKS White Plains NOT AVBL Newburgh PTCLDY 41 41 100 CALM 29.89R Montgomery PTCLDY 34 32 92 S3 29.87S Poughkeepsie CLOUDY 38 35 89 CALM 29.87S Albany CLOUDY 46 36 68 S3 29.86S $$ NJZ001-105-106-008-010-013-015-019>022-104-230800- NEW JERSEY CITY SKY/WX TMP DP RH WIND PRES REMARKS Newark/Liberty PTCLDY 48 41 76 CALM 29.89R Teterboro NOT AVBL Caldwell CLEAR 39 36 89 CALM 29.89F Somerville CLEAR 36 33 89 CALM 29.87F Linden NOT AVBL Sussex CLEAR 33 32 96 CALM 29.88S Andover N/A 33 32 96 CALM 29.88F Trenton CLEAR 43 41 93 SW3 29.89F Millville NOT AVBL Atlantic City MOCLDY 41 38 89 CALM 29.90F FOG Wrightstown CLOUDY 43 41 93 CALM 29.87F Toms River CLOUDY 37 36 93 CALM 29.91S Belmar CLOUDY 46 45 96 SW6 29.90F $$ PAZ047>061-062-071-230800- EASTERN PENNSYLVANIA CITY SKY/WX TMP DP RH WIND PRES REMARKS Philadelphia CLOUDY 47 45 93 W3 29.91S FOG Allentown NOT AVBL Scranton CLOUDY 44 39 82 E5 29.86 $$ CTZ002-004>006-009-010-012-RIZ004-006-007-MAZ004-011-015-230800- SOUTHERN NEW ENGLAND IN CT CITY SKY/WX TMP DP RH WIND PRES REMARKS Bradley INTL MOCLDY 40 35 83 CALM 29.88S Hartford CLOUDY 38 36 92 S3 29.89R Danbury NOT AVBL Wtrbury/Oxford CLOUDY 43 36 75 CALM 29.90R Bridgeport NOT AVBL Meriden CLOUDY 37 34 89 CALM 29.90R New Haven NOT AVBL Chester N/A 37 36 93 CALM 29.89R Groton FOG 39 38 96 CALM 29.89F VSB<1/4 Wilimantic CLOUDY 36 33 89 CALM 29.90S IN RI CITY SKY/WX TMP DP RH WIND PRES REMARKS Providence CLEAR 37 35 92 CALM 29.89S Block Island NOT AVBL Westerly FOG 37 33 85 CALM 29.90F VSB 1/4 IN MA CITY SKY/WX TMP DP RH WIND PRES REMARKS Boston CLOUDY 42 38 85 S5 29.88S Worcester MOCLDY 42 34 73 SW9 29.85S Westfield CLOUDY 34 32 92 CALM 29.88R Provincetown FOG 38 37 97 S6 29.89S VSB 1 WCI 33 Nantucket CLOUDY 43 41 93 SW5 29.91S $$ ANZ330-335-338-340-345-350-353-355-230800- COASTAL MARINE OBSERVATIONS STATION/POSITION TIME SKY/WX TEMP WIND PRES VSBY WAVE AIR SEA DIR/SP/G HT/PER (UTC) (F) (DEG/KT/KT) (MB) (MI) (FT/S) NY HARB ENTRANCE 0550 44 42 210/ 6/ 6 1012.0 2/ 9 20 S FIRE ISLAND 0650 45 43 210/ 8/ 10 1012.2 3/10 GREAT SOUTH BAY NOT AVBL 23 SSW MONTAUK P 0550 46 46 1012.7 3/11 15 E BARNEGAT LI 0630 42 N/A 3/10 HUDSON CANYON 0550 49 1013.4 3/10 KINGS POINT 0642 41 39 1012.0 EXECUTION ROCKS NOT AVBL CENTRAL LI SOUND 0630 39 160/ 4/ 6 N/A 0 EASTERN LI SOUND NOT AVBL ROBBINS REEF 0648 47 CALM 1012.2 $$ >>>>>>>>>>>>>>>>>>>>>>>>>>>> KEY <<<<<<<<<<<<<<<<<<<<<<<<<<< > < > SKY/WX - Sky Condition/Present Weather < > TMP - Temperature in Fahrenheit < > DP - Dew Point in Fahrenheit < > RH - Relative Humidity in Percent < > WIND - Direction (from) and Speed in MPH < > PRES - Mean Sea Level Pressure (inches of Hg) < > WCI - Wind Chill Index < > VSB - VISIBILITY IN MILES < > HX - HEAT INDEX < > TC - TEMPERATURE IN CELSIUS < > VRB - VARIABLE WIND DIRECTION < > < >>>>>>>>>>>>>>>>>>>>>>>>>>>> KEY <<<<<<<<<<<<<<<<<<<<<<<<<<<

USA.gov is the U.S. government's official web portal to all federal, state and local government web resources and services.